Location: Kosice
(48.7167°N, 21.2500°E)
Time: 13:38:23
(UTC+02:00)

ISS - Visible Passes

Search period start: 14 May 2021 00:00
Search period end: 24 May 2021 00:00
Orbit: 417 x 422 km, 51.6° (Epoch: 14 May)

Date Brightness Start Highest point End Pass type
(mag) Time Alt. Az. Time Alt. Az. Time Alt. Az.
14 May -2.8 01:18:38 25° WNW 01:20:18 49° N 01:23:36 10° ENE visible
14 May -3.8 02:53:55 10° WNW 02:57:19 89° NNE 03:00:42 10° ESE visible
14 May -2.2 21:17:08 10° S 21:19:25 17° SE 21:21:42 10° E visible
14 May -3.9 22:52:26 10° WSW 22:57:49 22° ENE 22:59:11 10° ENE visible
15 May -2.9 00:29:28 10° W 00:32:46 50° N 00:36:05 10° ENE visible
15 May -3.5 02:06:28 10° WNW 02:09:51 70° NNE 02:13:13 10° E visible
15 May -3.0 03:43:27 10° W 03:46:31 32° SW 03:49:34 10° SSE visible
15 May -3.7 22:05:06 10° SW 22:08:23 55° SSE 22:11:42 10° ENE visible
15 May -3.1 23:41:56 10° W 23:45:15 54° N 23:48:35 10° ENE visible
16 May -3.2 01:19:00 10° WNW 01:22:21 58° N 01:25:42 10° E visible
16 May -3.6 02:55:53 10° WNW 02:59:09 46° SSW 03:02:25 10° SE visible
16 May -3.2 21:17:52 10° SW 21:21:01 37° SSE 21:24:10 10° ENE visible
16 May -3.3 22:54:23 10° W 22:57:44 64° NNW 23:01:06 10° ENE visible
17 May -2.9 00:31:31 10° WNW 00:34:50 51° N 00:38:09 10° E visible
17 May -3.9 02:08:23 10° WNW 02:11:45 67° SSW 02:15:06 10° ESE visible
17 May -2.0 03:46:10 10° WSW 03:48:04 14° SW 03:49:58 10° S visible
17 May -3.7 22:06:52 10° WSW 22:10:15 79° NNW 22:13:37 10° ENE visible
17 May -2.8 23:44:00 10° WNW 23:47:18 49° N 23:49:59 14° ENE visible
18 May -2.5 01:20:55 10° WNW 01:22:53 32° WNW 01:22:53 32° WNW visible
18 May -3.8 21:19:25 10° WSW 21:22:47 78° SSE 21:26:09 10° ENE visible
18 May -2.8 22:56:27 10° W 22:59:45 50° N 23:03:03 10° ENE visible
19 May -3.4 00:33:27 10° WNW 00:36:27 62° NNW 00:36:27 62° NNW visible
19 May -3.0 22:08:54 10° W 22:12:12 54° N 22:15:32 10° ENE visible
19 May -3.2 23:45:58 10° WNW 23:49:19 58° NNE 23:50:16 39° ENE visible
20 May -1.2 01:22:51 10° WNW 01:23:11 12° WNW 01:23:11 12° WNW visible
20 May -3.3 21:21:20 10° W 21:24:41 63° NNW 21:28:02 10° ENE visible
20 May -2.9 22:58:28 10° WNW 23:01:47 51° N 23:04:10 17° E visible
21 May -2.2 00:35:20 10° WNW 00:37:06 28° WNW 00:37:06 28° WNW visible
21 May -2.8 22:10:56 10° WNW 22:14:14 49° N 22:17:30 10° ENE visible
21 May -3.8 23:47:51 10° WNW 23:51:02 78° WNW 23:51:02 78° WNW visible
22 May -2.8 21:23:22 10° W 21:26:40 50° N 21:29:58 10° ENE visible
22 May -3.6 23:00:22 10° WNW 23:03:44 70° NNE 23:05:01 34° E visible
23 May -1.3 00:37:21 10° W 00:37:57 14° W 00:37:57 14° W visible
23 May -3.2 22:12:53 10° WNW 22:16:13 58° NNE 22:19:01 14° E visible
23 May -2.6 23:49:45 10° WNW 23:51:57 33° W 23:51:57 33° W visible
